Kalkaman

Kazakhstan     51˚57′11″N   76˚01′32″E
temp.,
°C
wind,
m/s
gust,
m/s
humid.,
%
clouds,
%
prec.,
mm/h
press.,
hPa
HPBL,
m
29 november, sun
sun2900:00−6˚ne61095100 2.6 1028291
03:00−6˚nne5796100 1.2 1028252
06:00−6˚n4696100 2.4 1030242
09:00−6˚nnw4696100 1.0 1033197
12:00−6˚n3495100 1.1 1035191
15:00−8˚n349387 0.0 1037124
18:00−10˚nnw589689 0.1 1039147
21:00−12˚nw579696 0.1 1041139
30 november, mon
mon3000:00−13˚nw589698 0.1 1043166
03:00−14˚nw4696100 0.2 1044135
06:00−16˚wnw4597100 0.3 1046105
09:00−17˚wnw3498100 0.1 104855
12:00−15˚wnw3396100 0.1 1049129
15:00−15˚wnw2396100 0.0 104976
18:00−18˚wnw2399100 0.1 105120
21:00−20˚wsw2210090 0.0 105220
1 december, tue
tue100:00−21˚wsw2210076 0.0 105220
03:00−21˚w22995 0.0 105320
06:00−21˚wnw11992 0.0 105320
09:00−21˚nnw11990 0.0 105320
12:00−17˚wsw11920 0.0 105435
15:00−17˚nw11930 0.0 105320
18:00−19˚n11970 0.0 105420
21:00−20˚nnw111000 0.0 105320
2 december, wed
wed200:00−20˚wnw001000 0.0 105320
03:00−20˚nw111000 0.0 105320
06:00−21˚n111007 0.0 105220
09:00−21˚ne1110021 0.0 105120
12:00−17˚nw009417 0.0 105032
15:00−17˚ne11930 0.0 104920
18:00−20˚e22970 0.0 104720
21:00−21˚se22980 0.0 104620
3 december, thu
thu300:00−21˚ese23982 0.0 104520
03:00−21˚ese23970 0.0 104420
06:00−21˚ese33970 0.0 104320
09:00−22˚ese34980 0.0 104227
12:00−18˚e35952 0.0 1041147
15:00−18˚e35950 0.0 1040103
18:00−20˚e44960 0.0 104049
21:00−20˚e44970 0.0 103946